GEC105 EDDM-EDDL

Flight info

Callsign GEC105
Flight time 0h 56m
Altitude 32000
Route GIVMI6E GIVMI Y101 INBED DCT REKDI DCT LOHRE Z850 ADEMI T854 DOMUX DOMUX1A
Aircraft B77L/H-SDE1E2E3FGHIJ2J3J4J5M1RWXY/LB1D1

Departure

Time 2026-05-04 13:50
Airport Munich Airport (EDDM)

Arrival

Time 2026-05-04 14:47
Airport Düsseldorf Airport (EDDL)
Time Latitude Longitude Altitude Speed Heading
2026-05-04 13:01 48.34858 11.76850 1517 ft 0 kts 353°
2026-05-04 13:37 48.34853 11.76851 1476 ft 3 kts 353°
2026-05-04 13:38 48.34834 11.76854 1474 ft 3 kts 353°
2026-05-04 13:38 48.34815 11.76858 1478 ft 3 kts 349°
2026-05-04 13:38 48.34797 11.76866 1474 ft 3 kts 329°
2026-05-04 13:38 48.34781 11.76884 1474 ft 3 kts 309°
2026-05-04 13:39 48.34771 11.76908 1474 ft 3 kts 289°
2026-05-04 13:39 48.34766 11.76936 1477 ft 3 kts 270°
2026-05-04 13:39 48.34767 11.76959 1477 ft 0 kts 268°
2026-05-04 13:42 48.34762 11.76879 1474 ft 10 kts 264°
2026-05-04 13:42 48.34755 11.76769 1483 ft 11 kts 264°
2026-05-04 13:42 48.34740 11.76695 1488 ft 7 kts 223°
2026-05-04 13:42 48.34697 11.76666 1479 ft 7 kts 182°
2026-05-04 13:43 48.34685 11.76668 1481 ft 0 kts 173°
2026-05-04 13:43 48.34670 11.76671 1487 ft 12 kts 173°
2026-05-04 13:44 48.34575 11.76641 1482 ft 13 kts 237°
2026-05-04 13:44 48.34554 11.76506 1479 ft 13 kts 263°
2026-05-04 13:44 48.34543 11.76369 1487 ft 13 kts 263°
2026-05-04 13:44 48.34532 11.76230 1489 ft 13 kts 263°
2026-05-04 13:45 48.34522 11.76091 1476 ft 13 kts 263°
2026-05-04 13:45 48.34511 11.75953 1479 ft 13 kts 263°
2026-05-04 13:45 48.34500 11.75814 1487 ft 13 kts 263°
2026-05-04 13:45 48.34489 11.75675 1487 ft 13 kts 263°
2026-05-04 13:46 48.34479 11.75536 1477 ft 13 kts 263°
2026-05-04 13:46 48.34468 11.75398 1487 ft 13 kts 263°
2026-05-04 13:46 48.34457 11.75259 1489 ft 13 kts 263°
2026-05-04 13:46 48.34447 11.75120 1480 ft 13 kts 263°
2026-05-04 13:47 48.34427 11.74985 1478 ft 13 kts 240°
2026-05-04 13:47 48.34351 11.74913 1482 ft 13 kts 187°
2026-05-04 13:47 48.34269 11.74922 1477 ft 6 kts 174°
2026-05-04 13:47 48.34265 11.74923 1478 ft 0 kts 174°
2026-05-04 13:48 48.34258 11.74924 1477 ft 7 kts 174°
2026-05-04 13:48 48.34165 11.75004 1475 ft 19 kts 130°
2026-05-04 13:48 48.34092 11.75167 1485 ft 19 kts 109°
2026-05-04 13:48 48.34087 11.75338 1489 ft 10 kts 83°
2026-05-04 13:49 48.34093 11.75415 1484 ft 7 kts 83°
2026-05-04 13:49 48.34099 11.75490 1489 ft 7 kts 83°
2026-05-04 13:49 48.34108 11.75605 1479 ft 22 kts 83°
2026-05-04 13:49 48.34145 11.76082 1480 ft 78 kts 83°
2026-05-04 13:50 48.34235 11.77219 1484 ft 139 kts 84°
2026-05-04 13:50 48.34375 11.78904 1541 ft 179 kts 83°
2026-05-04 13:50 48.34499 11.80788 1980 ft 186 kts 84°
2026-05-04 13:50 48.34607 11.82759 2580 ft 190 kts 83°
2026-05-04 13:51 48.34847 11.84721 3138 ft 194 kts 69°
2026-05-04 13:51 48.35644 11.86392 3476 ft 209 kts 34°
2026-05-04 13:51 48.37081 11.87064 3767 ft 231 kts 358°
2026-05-04 13:51 48.38750 11.86772 3985 ft 253 kts 346°
2026-05-04 13:52 48.41613 11.83420 5259 ft 272 kts 315°
2026-05-04 13:52 48.42946 11.81365 6075 ft 275 kts 314°
2026-05-04 13:52 48.44289 11.79301 6742 ft 278 kts 314°
2026-05-04 13:53 48.45643 11.77215 7290 ft 279 kts 314°
2026-05-04 13:53 48.47007 11.75112 8200 ft 281 kts 312°
2026-05-04 13:53 48.48383 11.72994 9099 ft 284 kts 311°
2026-05-04 13:54 48.51215 11.68657 10482 ft 302 kts 311°
2026-05-04 13:54 48.52748 11.66299 10690 ft 328 kts 311°
2026-05-04 13:54 48.56187 11.61014 11287 ft 373 kts 311°
2026-05-04 13:55 48.58001 11.58163 12094 ft 380 kts 309°
2026-05-04 13:55 48.61481 11.51964 13813 ft 393 kts 307°
2026-05-04 13:55 48.63239 11.48768 14673 ft 397 kts 307°
2026-05-04 13:56 48.65024 11.45557 15527 ft 400 kts 307°
2026-05-04 13:56 48.66834 11.42325 16346 ft 405 kts 307°
2026-05-04 13:56 48.70566 11.35882 17858 ft 415 kts 315°
2026-05-04 13:57 48.72918 11.33266 18519 ft 425 kts 325°
2026-05-04 13:57 48.75454 11.30936 19174 ft 428 kts 326°
2026-05-04 13:58 48.83004 11.23528 21274 ft 436 kts 326°
2026-05-04 13:58 48.88599 11.19663 22560 ft 448 kts 338°
2026-05-04 13:58 48.91576 11.18178 23208 ft 452 kts 339°
2026-05-04 13:59 48.94584 11.16706 23802 ft 456 kts 339°
2026-05-04 13:59 48.97613 11.15210 24327 ft 459 kts 339°
2026-05-04 13:59 49.03715 11.12129 25400 ft 465 kts 338°
2026-05-04 14:00 49.06788 11.10557 25920 ft 468 kts 338°
2026-05-04 14:00 49.13010 11.07375 26922 ft 474 kts 338°
2026-05-04 14:00 49.16034 11.05364 27338 ft 474 kts 327°
2026-05-04 14:01 49.18765 11.02560 27800 ft 474 kts 318°
2026-05-04 14:01 49.21205 10.99181 28306 ft 472 kts 310°
2026-05-04 14:01 49.25550 10.91633 29487 ft 471 kts 308°
2026-05-04 14:02 49.27696 10.87860 30193 ft 469 kts 308°
2026-05-04 14:02 49.29835 10.84119 30839 ft 465 kts 308°
2026-05-04 14:02 49.31936 10.80468 31512 ft 460 kts 308°
2026-05-04 14:02 49.34053 10.76804 32014 ft 459 kts 308°
2026-05-04 14:03 49.36175 10.73140 31987 ft 459 kts 308°
2026-05-04 14:03 49.40404 10.65840 32000 ft 457 kts 308°
2026-05-04 14:04 49.46736 10.54872 31985 ft 458 kts 308°
2026-05-04 14:04 49.50962 10.47525 31983 ft 458 kts 308°
2026-05-04 14:05 49.57292 10.36480 31982 ft 458 kts 307°
2026-05-04 14:06 49.61501 10.29109 31977 ft 458 kts 307°
2026-05-04 14:06 49.65701 10.21731 31986 ft 458 kts 307°
2026-05-04 14:07 49.69901 10.14334 31980 ft 458 kts 307°
2026-05-04 14:07 49.73386 10.08181 31975 ft 458 kts 307°
2026-05-04 14:08 49.77575 10.00764 31980 ft 457 kts 307°
2026-05-04 14:08 49.81756 9.93341 31972 ft 458 kts 307°
2026-05-04 14:09 49.88023 9.82174 31957 ft 458 kts 307°
2026-05-04 14:10 49.94409 9.71138 31979 ft 461 kts 313°
2026-05-04 14:10 49.99368 9.64763 31983 ft 463 kts 317°
2026-05-04 14:11 50.04398 9.58461 31965 ft 464 kts 316°
2026-05-04 14:11 50.11894 9.48925 31971 ft 464 kts 316°
2026-05-04 14:12 50.16847 9.42558 31986 ft 464 kts 316°
2026-05-04 14:13 50.24324 9.32904 31986 ft 465 kts 315°
2026-05-04 14:13 50.29303 9.26456 31976 ft 465 kts 315°
2026-05-04 14:14 50.34278 9.19998 31986 ft 465 kts 315°
2026-05-04 14:14 50.41735 9.10279 31981 ft 465 kts 315°
2026-05-04 14:15 50.51662 8.97279 31983 ft 465 kts 315°
2026-05-04 14:16 50.59101 8.87488 31980 ft 465 kts 315°
2026-05-04 14:17 50.63939 8.81111 31798 ft 445 kts 315°
2026-05-04 14:17 50.66313 8.77976 31540 ft 436 kts 315°
2026-05-04 14:17 50.70884 8.71915 30846 ft 423 kts 314°
2026-05-04 14:18 50.73090 8.68980 30565 ft 417 kts 315°
2026-05-04 14:18 50.77490 8.63117 30084 ft 411 kts 315°
2026-05-04 14:19 50.81858 8.57275 30003 ft 415 kts 314°
2026-05-04 14:19 50.86299 8.51326 29745 ft 422 kts 315°
2026-05-04 14:19 50.88555 8.48301 29024 ft 427 kts 315°
2026-05-04 14:20 50.90830 8.45246 28274 ft 430 kts 315°
2026-05-04 14:20 50.93117 8.42174 27501 ft 433 kts 315°
2026-05-04 14:20 50.95421 8.39074 26781 ft 435 kts 315°
2026-05-04 14:21 51.00061 8.32825 25393 ft 438 kts 316°
2026-05-04 14:21 51.02502 8.29898 24821 ft 440 kts 322°
2026-05-04 14:21 51.05099 8.27451 24357 ft 439 kts 328°
2026-05-04 14:21 51.07779 8.25158 23906 ft 435 kts 328°
2026-05-04 14:22 51.10426 8.22867 23522 ft 430 kts 328°
2026-05-04 14:22 51.13029 8.20570 23080 ft 425 kts 327°
2026-05-04 14:22 51.15589 8.18284 22625 ft 420 kts 327°
2026-05-04 14:22 51.18124 8.16013 22215 ft 415 kts 327°
2026-05-04 14:23 51.23063 8.11578 21784 ft 397 kts 327°
2026-05-04 14:23 51.25442 8.09443 21695 ft 387 kts 327°
2026-05-04 14:23 51.27770 8.07349 21407 ft 383 kts 327°
2026-05-04 14:24 51.30081 8.05266 20997 ft 380 kts 327°
2026-05-04 14:24 51.32380 8.03193 20586 ft 378 kts 327°
2026-05-04 14:24 51.34661 8.01134 20193 ft 375 kts 327°
2026-05-04 14:24 51.36928 7.99086 19819 ft 373 kts 327°
2026-05-04 14:25 51.39182 7.97049 19424 ft 371 kts 327°
2026-05-04 14:25 51.43658 7.93012 18630 ft 365 kts 325°
2026-05-04 14:25 51.45536 7.90410 18185 ft 354 kts 303°
2026-05-04 14:26 51.46630 7.86967 17779 ft 344 kts 282°
2026-05-04 14:26 51.46999 7.83217 17351 ft 338 kts 268°
2026-05-04 14:26 51.46736 7.79507 16917 ft 334 kts 253°
2026-05-04 14:26 51.46084 7.75958 16516 ft 331 kts 251°
2026-05-04 14:27 51.45410 7.72437 16108 ft 330 kts 251°
2026-05-04 14:27 51.44756 7.68961 15717 ft 329 kts 251°
2026-05-04 14:27 51.44109 7.65446 15307 ft 329 kts 252°
2026-05-04 14:27 51.43470 7.61925 14908 ft 328 kts 252°
2026-05-04 14:28 51.42836 7.58417 14514 ft 328 kts 252°
2026-05-04 14:28 51.42200 7.54922 14115 ft 327 kts 251°
2026-05-04 14:28 51.41291 7.51639 13833 ft 317 kts 237°
2026-05-04 14:28 51.40076 7.48738 13573 ft 310 kts 234°
2026-05-04 14:29 51.37650 7.43106 13108 ft 307 kts 234°
2026-05-04 14:29 51.35237 7.37406 12671 ft 312 kts 235°
2026-05-04 14:30 51.34029 7.34526 12440 ft 311 kts 235°
2026-05-04 14:30 51.32824 7.31647 12213 ft 310 kts 235°
2026-05-04 14:30 51.31329 7.25475 11571 ft 305 kts 274°
2026-05-04 14:31 51.31891 7.22248 11280 ft 301 kts 295°
2026-05-04 14:31 51.34785 7.17647 10697 ft 297 kts 334°
2026-05-04 14:32 51.38802 7.17224 10104 ft 296 kts 19°
2026-05-04 14:32 51.40585 7.18829 9817 ft 296 kts 41°
2026-05-04 14:32 51.41946 7.21265 9503 ft 294 kts 58°
2026-05-04 14:32 51.42729 7.24244 9178 ft 289 kts 76°
2026-05-04 14:33 51.43217 7.27344 8856 ft 285 kts 77°
2026-05-04 14:33 51.43714 7.30397 8522 ft 280 kts 71°
2026-05-04 14:33 51.44669 7.33097 8189 ft 280 kts 53°
2026-05-04 14:33 51.45883 7.35558 7852 ft 283 kts 52°
2026-05-04 14:34 51.47109 7.38031 7455 ft 283 kts 53°
2026-05-04 14:34 51.48298 7.40513 7039 ft 283 kts 53°
2026-05-04 14:34 51.49485 7.43034 6608 ft 284 kts 54°
2026-05-04 14:34 51.50663 7.45574 6154 ft 283 kts 54°
2026-05-04 14:35 51.52054 7.47743 5676 ft 280 kts 29°
2026-05-04 14:35 51.53884 7.48653 5329 ft 274 kts
2026-05-04 14:35 51.55703 7.48104 5007 ft 264 kts 332°
2026-05-04 14:35 51.57107 7.46296 4602 ft 257 kts 302°
2026-05-04 14:36 51.57818 7.43711 4178 ft 252 kts 282°
2026-05-04 14:36 51.58152 7.40959 3764 ft 250 kts 277°
2026-05-04 14:36 51.58405 7.38175 3265 ft 253 kts 276°
2026-05-04 14:36 51.58363 7.35449 3006 ft 239 kts 251°
2026-05-04 14:37 51.57522 7.33319 2964 ft 217 kts 222°
2026-05-04 14:37 51.56385 7.31882 2986 ft 212 kts 217°
2026-05-04 14:37 51.55184 7.30417 2969 ft 215 kts 217°
2026-05-04 14:37 51.54016 7.29005 2924 ft 204 kts 218°
2026-05-04 14:38 51.52956 7.27601 2788 ft 198 kts 226°
2026-05-04 14:38 51.52009 7.25859 2699 ft 212 kts 230°
2026-05-04 14:38 51.51082 7.23987 2490 ft 212 kts 232°
2026-05-04 14:38 51.50218 7.22181 2238 ft 196 kts 232°
2026-05-04 14:39 51.49459 7.20580 2225 ft 164 kts 233°
2026-05-04 14:39 51.48807 7.19204 2246 ft 149 kts 233°
2026-05-04 14:39 51.48142 7.17798 2380 ft 160 kts 232°
2026-05-04 14:40 51.46810 7.14975 2468 ft 157 kts 232°
2026-05-04 14:40 51.46128 7.13528 2462 ft 164 kts 232°
2026-05-04 14:40 51.45429 7.12045 2494 ft 168 kts 232°
2026-05-04 14:40 51.44726 7.10555 2468 ft 167 kts 232°
2026-05-04 14:41 51.44018 7.09058 2501 ft 171 kts 232°
2026-05-04 14:41 51.43296 7.07528 2506 ft 172 kts 232°
2026-05-04 14:41 51.41891 7.04556 2501 ft 166 kts 232°
2026-05-04 14:42 51.40472 7.01558 2483 ft 169 kts 232°
2026-05-04 14:42 51.39762 7.00056 2486 ft 168 kts 232°
2026-05-04 14:42 51.39063 6.98579 2483 ft 166 kts 232°
2026-05-04 14:43 51.38365 6.97104 2515 ft 167 kts 232°
2026-05-04 14:43 51.37659 6.95614 2490 ft 168 kts 233°
2026-05-04 14:43 51.36959 6.94135 2491 ft 166 kts 232°
2026-05-04 14:43 51.36268 6.92681 2406 ft 166 kts 232°
2026-05-04 14:44 51.35580 6.91228 2183 ft 161 kts 232°
2026-05-04 14:44 51.34919 6.89838 1978 ft 153 kts 232°
2026-05-04 14:44 51.34284 6.88497 1773 ft 150 kts 233°
2026-05-04 14:44 51.33670 6.87203 1574 ft 147 kts 232°
2026-05-04 14:45 51.33040 6.85876 1396 ft 152 kts 231°
2026-05-04 14:45 51.32393 6.84514 1182 ft 155 kts 232°
2026-05-04 14:45 51.31753 6.83167 960 ft 152 kts 232°
2026-05-04 14:45 51.31116 6.81826 750 ft 151 kts 233°
2026-05-04 14:46 51.30479 6.80489 531 ft 151 kts 234°
2026-05-04 14:46 51.29853 6.79140 328 ft 152 kts 233°
2026-05-04 14:46 51.29201 6.77807 140 ft 150 kts 234°
2026-05-04 14:46 51.28647 6.76634 131 ft 108 kts 233°
2026-05-04 14:47 51.28307 6.75910 132 ft 50 kts 233°
2026-05-04 14:47 51.28131 6.75551 126 ft 18 kts 220°
2026-05-04 14:47 51.28015 6.75514 122 ft 18 kts 162°
2026-05-04 14:47 51.27987 6.75534 126 ft 1 kts 154°
2026-05-04 14:48 51.27980 6.75539 125 ft 1 kts 154°
2026-05-04 14:48 51.27973 6.75545 126 ft 1 kts 154°
2026-05-04 14:48 51.27896 6.75600 124 ft 16 kts 159°
2026-05-04 14:48 51.27804 6.75527 126 ft 16 kts 233°
2026-05-04 14:49 51.27721 6.75452 127 ft 13 kts 164°
2026-05-04 14:49 51.27645 6.75499 129 ft 8 kts 184°
2026-05-04 14:49 51.27610 6.75430 125 ft 8 kts 242°
2026-05-04 14:49 51.27607 6.75422 124 ft 0 kts 242°